Location: Nairn
(57.5833°N, 3.8667°W)
Time: 15:47:34
(UTC+00:00)

Tiros 1 - All Passes

Search period start: 26 November 2020 00:00
Search period end: 06 December 2020 00:00
Orbit: 630 x 664 km, 48.4° (Epoch: 25 November)

Date Brightness Start Highest point End Pass type
(mag) Time Alt. Az. Time Alt. Az. Time Alt. Az.
26 Nov - 17:19:03 10° SSW 17:22:21 19° SSE 17:25:40 10° ESE visible
26 Nov - 18:59:35 10° SW 19:03:37 27° S 19:07:37 10° ESE visible
26 Nov - 20:41:15 10° WSW 20:44:55 22° SSW 20:48:34 10° SSE visible
26 Nov - 22:25:22 10° SW 22:25:53 10° SW 22:26:23 10° SSW night (unlit)
27 Nov - 16:04:56 10° S 16:06:51 12° SSE 16:08:46 10° ESE daylight
27 Nov - 17:44:04 10° SW 17:47:54 24° SSE 17:51:42 10° ESE visible
27 Nov - 19:25:14 10° WSW 19:29:14 27° S 19:33:11 10° SE visible
27 Nov - 21:07:25 10° WSW 21:10:26 17° SSW 21:13:25 10° SSE visible
28 Nov - 16:29:01 10° SSW 16:32:15 18° SSE 16:35:30 10° ESE visible
28 Nov - 18:09:28 10° SW 18:13:30 27° S 18:17:30 10° ESE visible
28 Nov - 19:51:05 10° WSW 19:54:49 23° SSW 19:58:32 10° SE visible
28 Nov - 21:34:36 10° SW 21:35:48 11° SW 21:37:00 10° SSW visible
29 Nov - 15:15:06 10° SSE 15:16:46 12° SE 15:18:25 10° SE daylight
29 Nov - 16:53:59 10° SW 16:57:47 24° SSE 17:01:34 10° ESE visible
29 Nov - 18:35:06 10° WSW 18:39:07 27° S 18:43:06 10° SE visible
29 Nov - 20:17:12 10° WSW 20:20:20 17° SSW 20:23:26 10° SSE visible
30 Nov - 15:39:00 10° SSW 15:42:09 18° SSE 15:45:19 10° ESE daylight
30 Nov - 17:19:21 10° SW 17:23:23 27° S 17:27:23 10° ESE visible
30 Nov - 19:00:55 10° WSW 19:04:43 24° SSW 19:08:29 10° SE visible
30 Nov - 20:44:07 10° SW 20:45:43 12° SW 20:47:18 10° SSW visible
01 Dec - 14:25:21 10° SSE 14:26:40 11° SE 14:28:00 10° SE daylight
01 Dec - 16:03:54 10° SW 16:07:41 23° SSE 16:11:26 10° ESE daylight
01 Dec - 17:44:57 10° WSW 17:49:00 27° S 17:53:01 10° SE visible
01 Dec - 19:26:59 10° WSW 19:30:13 18° SSW 19:33:27 10° SSE visible
02 Dec - 14:48:59 10° SSW 14:52:04 17° SSE 14:55:08 10° ESE daylight
02 Dec - 16:29:14 10° SW 16:33:16 27° S 16:37:16 10° ESE visible
02 Dec - 18:10:45 10° WSW 18:14:36 24° SSW 18:18:24 10° SE visible
02 Dec - 19:53:44 10° WSW 19:55:39 12° SSW 19:57:31 10° S visible
03 Dec - 13:35:45 10° SSE 13:36:36 10° SE 13:37:26 10° SE daylight
03 Dec - 15:13:49 10° SW 15:17:34 23° SSE 15:21:17 10° ESE daylight
03 Dec - 16:54:49 10° WSW 16:58:53 27° S 17:02:55 10° SE visible
03 Dec - 18:36:47 10° WSW 18:40:08 19° SSW 18:43:27 10° SSE visible
04 Dec - 13:58:59 10° S 14:01:58 16° SSE 14:04:55 10° ESE daylight
04 Dec - 15:39:07 10° SW 15:43:08 27° S 15:47:09 10° ESE daylight
04 Dec - 17:20:36 10° WSW 17:24:29 25° SSW 17:28:20 10° SE visible
04 Dec - 19:03:23 10° WSW 19:05:33 13° SSW 19:07:41 10° S visible
05 Dec - 14:23:45 10° SSW 14:27:27 22° SSE 14:31:08 10° ESE daylight
05 Dec - 16:04:41 10° WSW 16:08:45 28° S 16:12:49 10° SE daylight
05 Dec - 17:46:35 10° WSW 17:50:01 20° SSW 17:53:26 10° SSE visible
